DELTA 1 DEB, 10874

Orbit data source: Space-Track

DELTA 1 DEB, 10874 is space debris in SSO originally from a launch on Thu, 29 Jul 1976 UTC launched from the Air Force Western Test Range (AFWTR). Debris objects in space refer to the collection of defunct objects orbiting the Earth. Examples of debris include non-operational satellites, rocket bodies, and fragments generated from explosions, collisions, or faulty payload assembly.

Loading next visibility...
Identifier
10874, 1976-077DC
Orbit
SSO
Country
Flag of USUS
Related business
Manufacturer
Unknown
Mission
Spacecraft
Bus & Motor
Unknown
Mass
Unknown
Launch date (UTC)
1976-07-29 (50 years ago)
Launch vehicle
Unknown
Launch site
Air Force Western Test Range (AFWTR)
Object type
Payload
Rocket body
Debris
Shape & HBR
Unknown shape, 0.1 m
Radar Cross Section
Small (<0.1 m²)

Expand to show TLE details & history
Last TLE update: 6 hours ago

TLE from 6 hours ago
0 DELTA 1 DEB
1 10874U 76077DC  26127.95597620  .00001395  00000-0  37541-2 0  9998
2 10874 101.9976 287.7200 0045541   3.7569 147.5714 13.16885756332175
Epoch: 2026-05-07T22:56Z
TLE epoch observation values (Epoch: 2026-05-07T22:56:36.343Z)
Latitude
27.76062°
Longitude
-95.83615°
Altitude
1,228.979 km
Speed
7.229 km/s
True Right ascension
07h 36m 26s
True Declination
27° 37' 40"
Sunlit
Object was in daylight at epoch
Visualization orbit readout
Latitude
Unknown
Longitude
Unknown
Altitude
Unknown
Speed
Unknown
Apparent Right ascension
Unknown
Apparent Declination
Unknown
Sunlit
N/A
Visualization observer readout
Local Sidereal Time
13:26:06
Azimuth
Unknown
Elevation
Unknown
Doppler factor
Unknown
Orbital elements
Apogee altitude
1,228.598 km
Perigee altitude
1,159.629 km
Semi-major axis
7,572.251 km
Eccentricity
0.00455
Inclination
101.9976°
RAAN
287.72°
Arg. of periapsis
3.7569°
True anomaly
147.84991°
Mean anomaly
147.5714°
Eccentric anomaly
147.71079°
Mean motion
3.29386 °/min
Orbital period
109.29 mins
BSTAR
0.0037541
Loading maneuver chart data...
Computing Atmospheric mass density...
Loading historical data...
Loading historical data...
Loading historical data...
Loading historical data...
Loading historical data...
Loading historical data...
Loading historical data...

Documentation

Showing up to 5 results
|